This is the latest recevied weather packets stored in our database for station/object N7SWJ. If no packets are shown the sender has not sent any weather packets the latest 10 day(s).
| Time | Temp. | Humidity | Pressure | Rain* | Wind** | Luminosity | Snow |
|---|---|---|---|---|---|---|---|
| 1778034371 | 0.56° C | 96% | 1017 hPa | 0 mm | - | 0 W/m² | - |
| 1778034068 | 0.56° C | 96% | 1017.1 hPa | 0 mm | - | 0 W/m² | - |
| 1778033765 | 0.56° C | 96% | 1016.9 hPa | 0 mm | - | 0 W/m² | - |
| 1778033463 | 0.56° C | 96% | 1017 hPa | 0 mm | - | 0 W/m² | - |
| 1778033160 | 0.56° C | 96% | 1016.9 hPa | 0 mm | - | 0 W/m² | - |
| 1778032857 | 0.56° C | 96% | 1016.9 hPa | 0 mm | - | 0 W/m² | - |
| 1778032555 | 0.56° C | 96% | 1016.8 hPa | 0 mm | - | 1 W/m² | - |
| 1778032251 | 0.56° C | 96% | 1016.8 hPa | 0 mm | - | 1 W/m² | - |
| 1778031949 | 0.56° C | 96% | 1016.8 hPa | 0 mm | - | 1 W/m² | - |
| 1778031644 | 0.56° C | 96% | 1016.6 hPa | 0 mm | - | 2 W/m² | - |
| 1778031343 | 0.56° C | 96% | 1016.7 hPa | 0 mm | - | 2 W/m² | - |
| 1778031039 | 0.56° C | 96% | 1016.3 hPa | 0 mm | - | 3 W/m² | - |
| 1778030735 | 0.56° C | 96% | 1016.1 hPa | 0 mm | - | 4 W/m² | - |
| 1778030432 | 0.56° C | 96% | 1016.3 hPa | 0 mm | - | 4 W/m² | - |
| 1778030130 | 0.56° C | 95% | 1016.5 hPa | 0 mm | - | 5 W/m² | - |
| 1778029826 | 0.56° C | 95% | 1016.3 hPa | 0 mm | - | 7 W/m² | - |
| 1778029525 | 0.56° C | 95% | 1016.2 hPa | 0 mm | - | 7 W/m² | - |
| 1778029221 | 0.56° C | 95% | 1016.2 hPa | 0 mm | - | 9 W/m² | - |
| 1778028919 | 0.56° C | 95% | 1016.5 hPa | 0 mm | - | 12 W/m² | - |
| 1778028614 | 0.56° C | 95% | 1016.2 hPa | 0 mm | - | 15 W/m² | - |
| 1778028312 | 0.56° C | 95% | 1016 hPa | 1.78 mm | - | 16 W/m² | - |
| 1778028009 | 0.56° C | 95% | 1016 hPa | 1.78 mm | - | 15 W/m² | - |
| 1778027705 | 0.56° C | 95% | 1016.2 hPa | 0 mm | - | 17 W/m² | - |
| 1778027401 | 0.56° C | 95% | 1016.1 hPa | 0 mm | - | 23 W/m² | - |
| 1778027097 | 0.56° C | 95% | 1016.1 hPa | 0 mm | - | 24 W/m² | - |
* Rain latest hour (hover to see other rain measurements)
** Current wind speed in m/s (hover to see current wind gust speed)